Regional Weather Roundup
Issued by NWS Columbia, SC

Home | Current Version | Previous Version | Text Only | Print | Product List | Glossary On
Versions: 1 2 3 4 5 6 7 8 9 10 11 12 13 14 15 16 17 18 19 20 21 22 23 24 25 26 27
000
ASUS42 KCAE 241810
RWRCAE
REGIONAL WEATHER ROUNDUP
NATIONAL WEATHER SERVICE COLUMBIA SC
200 PM EDT THU APR 24 2014

NOTE: "FAIR" INDICATES FEW OR NO CLOUDS BELOW 12,000 FEET WITH NO
SIGNIFICANT WEATHER AND/OR OBSTRUCTIONS TO VISIBILITY.

NOT ALL STATIONS ARE QUALITY CONTROLLED BY THE NATIONAL
WEATHER SERVICE. USE DATA WITH CAUTION...ESPECIALLY
DEWPOINT OBSERVATIONS.

SCZ001>056-GAZ040-063>065-077-241900-
...UPSTATE SOUTH CAROLINA...

CITY           SKY/WX    TMP DP  RH WIND       PRES   REMARKS
ANDERSON       SUNNY     72  39  30 VRB6      30.03F
6HR MIN TEMP:  54; 6HR MAX TEMP:  72;

LIBERTY        FAIR      71  50  48 MISG      30.04F
6HR MIN TEMP:  42; 6HR MAX TEMP:  83;

SPARTANBURG    FAIR      73  39  29 E9        30.05F
CLEMSON        SUNNY     72  35  25 E8        30.05F
6HR MIN TEMP:  55; 6HR MAX TEMP:  72;

GREENVILLE     SUNNY     70  34  26 E8        30.06F
6HR MIN TEMP:  53; 6HR MAX TEMP:  72;

GREENWOOD      SUNNY     73  41  31 E9        30.05F
6HR MIN TEMP:  53; 6HR MAX TEMP:  73;

GREER          SUNNY     69  37  30 CALM      30.04F
6HR MIN TEMP:  51; 6HR MAX TEMP:  69;

ROCK HILL      SUNNY     69  36  29 VRB5      30.06F
6HR MIN TEMP:  51; 6HR MAX TEMP:  69;

CHESTER        FAIR      73  39  29 SE8       30.06F


...CENTRAL SOUTH CAROLINA...

CITY           SKY/WX    TMP DP  RH WIND       PRES   REMARKS
COLUMBIA APT   SUNNY     74  41  30 E6        30.04F
6HR MIN TEMP:  58; 6HR MAX TEMP:  75;

COLUMBIA OWENS SUNNY     75  39  27 S8        30.06F
6HR MIN TEMP:  56; 6HR MAX TEMP:  75;

DARLINGTON     SUNNY     70  37  30 SE3       30.08F
6HR MIN TEMP:  54; 6HR MAX TEMP:  70;

FLORENCE       SUNNY     72  39  30 VRB3      30.07F
6HR MIN TEMP:  53; 6HR MAX TEMP:  73;

MCENTIRE ANGB  MOSUNNY   74  43  32 E9        30.05F
6HR MIN TEMP:  56; 6HR MAX TEMP:  74;

ORANGEBURG     SUNNY     73  43  33 VRB5      30.05F
6HR MIN TEMP:  55; 6HR MAX TEMP:  74;

SUMTER SHAW    SUNNY     73  40  29 E10       30.04F
6HR MIN TEMP:  54; 6HR MAX TEMP:  73;

NEWBERRY       FAIR      72  39  30 E6        30.07F
AIKEN          FAIR      75  48  38 SE7       30.05F
BARNWELL       FAIR      75  46  35 E6        30.03F
MANNING        FAIR      77  46  33 E7        30.05F
CAMDEN         FAIR      72  39  30 E8        30.07F
LANCASTER      FAIR      70  37  30 CALM      30.07F
WINNSBORO      FAIR      73  37  27 SE6       30.05F


...EASTERN AND COASTAL SOUTH CAROLINA...

CITY           SKY/WX    TMP DP  RH WIND       PRES   REMARKS
N MYRTLE BCH   SUNNY     67  47  48 E14       30.09F
6HR MIN TEMP:  54; 6HR MAX TEMP:  68;

CONWAY         FAIR      72  45  37 SE6       30.07F
MARION         FAIR      70  37  30 CALM      30.08F
HARTSVILLE     FAIR      72  36  26 E7        30.08F
FLORENCE       SUNNY     72  39  30 VRB3      30.07F
6HR MIN TEMP:  53; 6HR MAX TEMP:  73;

DARLINGTON     SUNNY     70  37  30 SE3       30.08F
6HR MIN TEMP:  54; 6HR MAX TEMP:  70;

CHARLESTON APT MOSUNNY   77  50  38 E14G22    30.05F
6HR MIN TEMP:  59; 6HR MAX TEMP:  78;

MOUNT PLEASANT LGT RAIN  70  54  56 E9G18     30.06F
WALTERBORO     CLEAR     77  57  50 SE9       30.03F
BEAUFORT       MOSUNNY   75  56  51 S15       30.04S
6HR MIN TEMP:  67; 6HR MAX TEMP:  77;



...EASTERN GEORGIA...

CITY           SKY/WX    TMP DP  RH WIND       PRES   REMARKS
AUGUSTA BUSH F SUNNY     78  45  30 E6        30.01F
6HR MIN TEMP:  52; 6HR MAX TEMP:  78;

AUGUSTA DANIEL SUNNY     77  41  27 VRB5      30.02F
6HR MIN TEMP:  59; 6HR MAX TEMP:  78;

THOMSON        SUNNY     76  49  37 CALM      30.05F
6HR MIN TEMP:  55; 6HR MAX TEMP:  77;

WASHINGTON     HAZE      75  41  29 CALM      30.02F VSB 1/4
CLAXTON        FAIR      82  57  42 W5        30.00F
SYLVANIA       CLEAR     82  50  32 CALM      30.01F
6HR MIN TEMP:  58; 6HR MAX TEMP:  82;

STATESBORO     SUNNY     80  42  25 CALM      30.00F
6HR MIN TEMP:  56; 6HR MAX TEMP:  80;

SAVANNAH       MOSUNNY   79  60  52 SE18      30.01F
6HR MIN TEMP:  60; 6HR MAX TEMP:  82;



...SOUTHERN NORTH CAROLINA...

CITY           SKY/WX    TMP DP  RH WIND       PRES   REMARKS
CHARLOTTE      MOSUNNY   69  38  32 VRB5      30.07F
6HR MIN TEMP:  53; 6HR MAX TEMP:  69;

MONROE         SUNNY     68  38  33 S3        30.06F
6HR MIN TEMP:  51; 6HR MAX TEMP:  68;

WADESBORO      CLEAR     69  32  25 NE6       30.07F
6HR MIN TEMP:  45; 6HR MAX TEMP:  69;

ROCKINGHAM       N/A     69  35  29 SW5       30.07F
6HR MIN TEMP:  50; 6HR MAX TEMP:  69;

RUTHERFORDTON  SUNNY     67  35  30 S9        30.06F
6HR MIN TEMP:  44; 6HR MAX TEMP:  67;

ASHEVILLE      SUNNY     67  34  29 SE8       30.04F
6HR MIN TEMP:  41; 6HR MAX TEMP:  68;


$$



USA.gov is the U.S. government's official web portal to all federal, state and local government web resources and services.